Location: Oberwangen
(47.4286°N, 8.9679°E)
Time: 08:02:57
(UTC+00:00)

Cosmos 1447 Rocket - Pass Details

Date: 26 October 2021
Orbit: 953 x 996 km, 82.9° (Epoch: 27 November)

Event Time Altitude Azimuth Distance (km) Brightness Sun altitude
Rises 19:40:29 0° 337° (NNW) 3,642 8.0 -34.7°
Reaches altitude 10° 19:43:57 10° 317° (NW) 2,691 7.5 -35.3°
Maximum altitude 19:47:31 16° 281° (WNW) 2,263 7.0 -35.8°
Drops below altitude 10° 19:51:05 10° 245° (WSW) 2,685 7.2 -36.4°
Sets 19:54:34 0° 226° (SW) 3,630 7.7 -36.9°
